Location: Highridge
(54.0333°N, 114.1333°W)
Time: 14:34:18
(UTC+00:00)

Oscar 19 - Pass Details

Date: 03 December 2023
Orbit: 771 x 789 km, 98.9° (Epoch: 01 March)

Event Time Altitude Azimuth Distance (km) Brightness Sun altitude
Rises 14:43:26 0° 8° (N) 3,270 13.7 -7.2°
Reaches altitude 10° 14:46:40 10° 347° (NNW) 2,342 12.7 -6.8°
Maximum altitude 14:49:32 15° 313° (NW) 1,997 12.1 -6.4°
Drops below altitude 10° 14:52:24 10° 279° (W) 2,341 12.5 -6.0°
Sets 14:55:39 0° 257° (WSW) 3,269 13.4 -5.6°
